George, South Africa

3:09 PM SAST on August 23, 2017 (GMT +0200)
George

Weather History for FAGG - September, 2012

Change the Weather History Date:

Tuesday, September 11, 2012

  Actual Average Record
Temperature  
Mean Temperature 54 °F -  
Max Temperature 62 °F 65 °F 86 °F (2007)
Min Temperature 46 °F 48 °F 42 °F (2000)
Degree Days  
Heating Degree Days 11    
Growing Degree Days 4 (Base 50)    
Moisture  
Dew Point 49 °F    
Average Humidity 77    
Maximum Humidity 93    
Minimum Humidity 54    
Precipitation  
Precipitation 0.00 in - - ()
Sea Level Pressure  
Sea Level Pressure 30.17 in    
Wind  
Wind Speed 4 mph ()    
Max Wind Speed 12 mph    
Max Gust Speed -    
Visibility 8.5 miles    
Events      
Averages and records for this station are not official NWS values.
T = Trace of Precipitation, MM = Missing Value Source: Averaged Metar Reports

Daily Weather History Graph

Daily Weather History Graph

Search for Another Location

Airport or City:

Trip Planner

Search our weather history database for the weather conditions in past years. The results will help you decide how hot, cold, wet, or windy it might be!

Date:

Astronomy

Sep. 11, 2012 Rise Set
Actual Time 6:34 AM SAST 6:19 PM SAST
Civil Twilight 6:10 AM SAST 6:44 PM SAST
Nautical Twilight 5:41 AM SAST 7:13 PM SAST
Astronomical Twilight 5:12 AM SAST 7:42 PM SAST
Moon 3:11 AM SAST (9/11) 1:48 PM SAST (9/11)
Length of Visible Light 12h 34m
Length of Day
11h 44m
Waning Crescent, 24% of the Moon is Illuminated
Sep 11
Waning Crescent
Sep 16
New
Sep 22
First Quarter
Sep 30
Full
Oct 8
Last Quarter

Hourly Weather History & Observations

Time (SAST) Temp. Dew Point Humidity Pressure Visibility Wind Dir Wind Speed Gust Speed Precip Events Conditions
12:00 AM 50.0 °F 46.4 °F 87% 30.21 in 6.2 mi North 3.5 mph - N/A   Scattered Clouds
1:00 AM 50.0 °F 46.4 °F 87% 30.21 in 6.2 mi Variable 1.2 mph - N/A   Mostly Cloudy
2:00 AM 49 °F 46 °F 84% 30.23 in 6 mi North 3.5 mph - -  
2:00 AM 48.2 °F 46.4 °F 93% 30.21 in - North 3.5 mph - N/A   Clear
3:00 AM 48.2 °F 44.6 °F 87% 30.18 in - North 3.5 mph - N/A   Clear
4:00 AM 48.2 °F 44.6 °F 87% 30.18 in - North 4.6 mph - N/A   Clear
5:00 AM 49 °F 45 °F 79% 30.20 in 12 mi NE 4.6 mph - -  
5:00 AM 48.2 °F 44.6 °F 87% 30.18 in - NE 4.6 mph - N/A   Clear
6:00 AM 48.2 °F 44.6 °F 87% 30.18 in - North 3.5 mph - N/A   Clear
7:00 AM 48.2 °F 44.6 °F 87% 30.18 in - NNE 4.6 mph - N/A   Clear
8:00 AM 51 °F 47 °F 81% 30.24 in 12 mi NW 2.3 mph - -  
8:00 AM 51.8 °F 48.2 °F 88% 30.21 in - Variable 1.2 mph - N/A   Clear
9:00 AM 59.0 °F 48.2 °F 67% 30.21 in - Variable 2.3 mph - N/A   Clear
10:00 AM 60.8 °F 48.2 °F 63% 30.21 in - Variable 3.5 mph - N/A   Clear
11:00 AM 60 °F 48 °F 54% 30.21 in 12 mi SSE 8.1 mph - -  
11:00 AM 60.8 °F 48.2 °F 63% 30.18 in - SSE 8.1 mph - N/A   Clear
12:00 PM 60.8 °F 48.2 °F 63% 30.18 in - South 9.2 mph - N/A   Clear
1:00 PM 60.8 °F 50.0 °F 68% 30.18 in 6.2 mi SSE 8.1 mph - N/A   Partly Cloudy
2:00 PM 62 °F 51 °F 57% 30.16 in 12 mi SSE 8.1 mph - -   Scattered Clouds
2:00 PM 62.6 °F 51.8 °F 68% 30.15 in 6.2 mi SSE 6.9 mph - N/A   Partly Cloudy
3:00 PM 62.6 °F 51.8 °F 68% 30.12 in - ESE 9.2 mph - N/A   Clear
4:00 PM 60.8 °F 51.8 °F 72% 30.12 in - SE 9.2 mph - N/A   Clear
5:00 PM 60 °F 52 °F 67% 30.12 in 12 mi ESE 10.4 mph - -  
5:00 PM 59.0 °F 51.8 °F 77% 30.12 in - ESE 10.4 mph - N/A   Clear
6:00 PM 57.2 °F 51.8 °F 82% 30.09 in - ESE 11.5 mph - N/A   Clear
7:00 PM 55.4 °F 50.0 °F 82% 30.12 in 6.2 mi East 3.5 mph - N/A   Scattered Clouds
8:00 PM 56 °F 52 °F 83% 30.14 in 12 mi East 3.5 mph - -   Mostly Cloudy
8:00 PM 57.2 °F 51.8 °F 82% 30.12 in 6.2 mi East 3.5 mph - N/A   Mostly Cloudy
9:00 PM 57.2 °F 51.8 °F 82% 30.12 in 6.2 mi East 4.6 mph - N/A   Mostly Cloudy
10:00 PM 55.4 °F 51.8 °F 88% 30.12 in 5.6 mi Variable 1.2 mph - N/A   Unknown